This demonstration page uses our WeatherBlox Daily Observations layout. Learn more.

39.29038, -76.61219

Hourly Observations for July 18, 2015

Temp ( °F °C ) Dew Point ( °F °C ) Humidity (%) Winds ( mph kmh ) Pressure ( in mb ) Visibility ( mi km ) Precip ( " mm )
12:54 am 00:54 Cloudy 79 26 70 21 74 74 undefined N/A 30 1016 2.25 3.621024 0 0
1:54 am 01:54 undefined 77 25 70 21 79 79 undefined N/A 30 1016 N/A 0 0
2:54 am 02:54 undefined 77 25 70 21 79 79 undefined N/A 29.97 1015 N/A 0 0
3:54 am 03:54 Mostly Cloudy 75 24 70 21 83 83 undefined N/A 29.97 1015 N/A 0 0
4:54 am 04:54 Cloudy 75 24 70 21 83 83 undefined N/A 29.97 1015 N/A 0 0
5:54 am 05:54 undefined 75 24 70 21 83 83 undefined N/A 29.97 1015 N/A 0 0
6:54 am 06:54 Cloudy 75 24 70 21 83 83 undefined N/A 29.97 1015 N/A 0 0
7:54 am 07:54 Cloudy 77 25 70 21 79 79 undefined N/A 29.97 1015 N/A 0 0
8:54 am 08:54 Mostly Sunny 79 26 70 21 74 74 undefined N/A 29.97 1015 N/A 0 0
9:54 am 09:54 undefined 81 27 70 21 70 70 undefined N/A 30.03 1017 N/A 0 0
10:54 am 10:54 Mostly Sunny 75 24 70 21 83 83 undefined N/A 30 1016 N/A 0.11 2.794
11:54 am 11:54 Partly Cloudy 79 26 72 22 79 79 undefined N/A 29.94 1014 N/A 0.01 0.254
12:54 pm 12:54 Mostly Sunny 81 27 73 23 79 79 undefined N/A 29.94 1014 N/A 0 0
1:54 pm 13:54 Partly Cloudy 84 29 73 23 70 70 undefined N/A 29.94 1014 N/A 0 0
2:54 pm 14:54 Mostly Cloudy 86 30 72 22 62 62 undefined N/A 29.91 1013 N/A 0 0
3:54 pm 15:54 undefined 90 32 72 22 55 55 undefined N/A 29.91 1013 N/A 0 0
4:54 pm 16:54 undefined 90 32 73 23 59 59 undefined N/A 29.91 1013 N/A 0 0
5:54 pm 17:54 undefined 90 32 72 22 55 55 undefined N/A 29.91 1013 N/A 0 0
6:54 pm 18:54 undefined 88 31 72 22 59 59 undefined N/A 29.91 1013 N/A 0 0
7:54 pm 19:54 Cloudy 88 31 72 22 59 59 undefined N/A 29.88 1012 N/A 0.001 0.001
8:54 pm 20:54 Mostly Cloudy 84 29 72 22 66 66 undefined N/A 29.91 1013 N/A 0 0
9:54 pm 21:54 Cloudy 84 29 72 22 66 66 undefined N/A 29.91 1013 N/A 0 0
10:54 pm 22:54 Mostly Clear 82 28 72 22 70 70 undefined N/A 29.94 1014 N/A 0 0
11:54 pm 23:54 undefined 81 27 72 22 74 74 undefined N/A 29.91 1013 N/A 0 0

Powered by AerisWeather